Home   Weather   Masaya   Past weeks

Flag for Nicaragua Past Weather in Masaya, Nicaragua — Yesterday and Last 2 Weeks

Now
81 °F

Passing clouds.


Feels Like: 85 °F
Forecast: 73 / 87 °F
Wind: 5 mph from East

Location: Managua A. C. Sandino

Current Time: Sep 28, 2016 at 7:38:24 PM

Latest Report: Sep 28, 2016 at 7:00 PM


Visibility: N/A

Pressure: 29.89 "Hg

Humidity: 74%

Dew Point: 72 °F

Location of MasayaLocation

Past Weather in Masaya — Graph

°F

Masaya Temperature Yesterday

Maximum temperature yesterday: 91 °F (at 1:00 PM)
Minimum temperature yesterday: 75 °F (at 4:00 AM)
Average temperature yesterday: 83 °F

High & Low Weather Summary for the Past Weeks

 TemperatureHumidityPressure
High91 °F (Sep 17, 1:00 PM)100% (Sep 13, 6:00 PM)29.95 "Hg (Sep 13, 6:00 PM)
Low73 °F (Sep 20, 6:00 AM)49% (Sep 27, 1:00 PM)29.74 "Hg (Sep 18, 3:00 PM)
Average81 °F79%29.84 "Hg
* Reported Sep 13 6:00 PM — Sep 28 6:00 PM, Masaya, Weather by CustomWeather, © 2016

Note: Actual official high and low records may vary slightly from our data, if they occured in-between our weather recording intervals... More about our weather records

Advertising

Masaya Weather History for the Previous 24 Hours

Scroll right to see more
 ConditionsComfort  
Time TempWeatherWind HumidityBarometerVisibility
6:00 PM
Wed, Sep 28
82 °FThunderstorms. Passing clouds.7 mph70%29.86 "HgN/A
5:00 PM84 °FScattered clouds.5 mph74%29.83 "HgN/A
4:00 PM84 °FPassing clouds.9 mph79%29.80 "HgN/A
3:00 PM91 °FPassing clouds.9 mph59%29.77 "HgN/A
2:00 PM91 °FPassing clouds.12 mph59%29.80 "HgN/A
1:00 PM91 °FPassing clouds.12 mph59%29.83 "HgN/A
12:00 PM90 °FPassing clouds.14 mph63%29.86 "HgN/A
11:00 AM88 °FPassing clouds.9 mph66%29.86 "HgN/A
10:00 AM86 °FPassing clouds.7 mph70%29.89 "HgN/A
9:00 AM84 °FPassing clouds.9 mph70%29.92 "HgN/A
8:00 AM82 °FPassing clouds.7 mph74%29.92 "HgN/A
7:00 AM79 °FPassing clouds.5 mph84%29.89 "HgN/A
6:00 AM75 °FPassing clouds.5 mph89%29.86 "HgN/A
5:00 AM75 °FPassing clouds.5 mph94%29.86 "HgN/A
4:00 AM75 °FPassing clouds.No wind94%29.83 "HgN/A
3:00 AM75 °FPassing clouds.No wind94%29.83 "HgN/A
2:00 AM75 °FPassing clouds.No wind94%29.83 "HgN/A
1:00 AM77 °FPassing clouds.No wind100%29.86 "HgN/A
12:00 AM79 °FPassing clouds.5 mph94%29.86 "HgN/A
11:00 PM
Tue, Sep 27
79 °FPassing clouds.5 mph89%29.86 "HgN/A
10:00 PM79 °FPassing clouds.5 mph89%29.86 "HgN/A
8:00 PM81 °FPassing clouds.5 mph84%29.83 "HgN/A
7:00 PM82 °FPassing clouds.7 mph79%29.80 "HgN/A
Weather by CustomWeather, © 2016

See weather overviewHow to use our weather pages